ORBCOMM FM109 [+] (40086 NORAD) Tracking and Keplerian Element Data

This shows tracking and keplerian element data for the satellite.

Feedback or suggestion? Click here.




ElementValue
Catalog40086
NameORBCOMM FM109 [+]
Epoch Orbit21274
Epoch Day195.9415874
Epoch Year2018
RAAN30.1795
Inclination47.0052
Eccentricity0.0002471
Argument of Perigee261.7888
Mean Anonmoly98.2716
Mean Motion14.54713425
Decay Rate-6.1E-07
L11 40086U 14040A 18195.94158740 -.00000061 00000-0 24125-4 0 9995
L22 40086 47.0052 30.1795 0002471 261.7888 98.2716 14.54713425212742

Live tracking and technical data element details for ORBCOMM FM109 [+] (NORAD 40086). ORBCOMM FM109 [+] can be tracked NOW for your location showing map with azimuth and elevation plus other details from your city location.

Track the satellite on the map from your city or location and see movement details for azimuth, elevation, latitude, longitude, range, height, and movement on the map or in text.







IsCatalogInMostPopularTable: catalog: 40086, numindb: 51
Update: records affected: 1



GetName: 40086 ORBCOMM FM109 [+]

Hit Count: updated at: Sun, 15 Jul 2018 23:08:47 GMT